• MPC Preparation (Info)

  • MPEC 2016-J95 : 2016 JC18

    The following Minor Planet Electronic Circular may be linked-to from your own Web pages, but must not otherwise be redistributed electronically.

    A form allowing access to any MPEC is at the bottom of this page.


    Read MPEC 2016-J94 Read MPEC 2016-J96


    M.P.E.C. 2016-J95                                Issued 2016 May  9, 15:19 UT
    
         The Minor Planet Electronic Circulars contain information on unusual
             minor planets and routine data on comets.  They are published
        on behalf of Division F of the International Astronomical Union by the
              Minor Planet Center, Smithsonian Astrophysical Observatory,
                              Cambridge, MA 02138, U.S.A.
    
                 Prepared using the Tamkin Foundation Computer Network
    
                                  MPC@CFA.HARVARD.EDU
                URL https://www.minorplanetcenter.net/    ISSN 1523-6714
    
                                       2016 JC18
    
    Observations:
         K16J18C* C2016 05 07.39252 14 31 00.126-11 58 07.51         19.9 wLEJ095F51
         K16J18C  C2016 05 07.40355 14 30 53.664-11 59 16.04         19.9 wLEJ095F51
         K16J18C  C2016 05 07.41461 14 30 47.231-12 00 24.19         19.9 wLEJ095F51
         K16J18C  C2016 05 07.42566 14 30 40.726-12 01 33.05         20.1 wLEJ095F51
         K16J18C  C2016 05 07.92128 14 25 54.46 -12 54 02.8                qEJ095246
         K16J18C  C2016 05 07.92152 14 25 54.39 -12 54 06.4                qEJ095246
         K16J18C  C2016 05 07.92182 14 25 54.16 -12 54 07.8                qEJ095246
         K16J18C  C2016 05 07.92271 14 25 53.59 -12 54 11.9                qEJ095246
         K16J18C  C2016 05 08.17513 14 23 24.18 -13 21 20.0          19.3 RoEJ095926
         K16J18C  C2016 05 08.17772 14 23 22.58 -13 21 37.7          19.6 RoEJ095926
         K16J18C  C2016 05 08.18031 14 23 21.02 -13 21 53.8          19.3 RoEJ095926
         K16J18C  C2016 05 08.19175 14 23 13.81 -13 23 10.9          19.2 VqEJ095I52
         K16J18C  C2016 05 08.19251 14 23 13.35 -13 23 15.3          19.3 VqEJ095I52
         K16J18C  C2016 05 08.19328 14 23 12.88 -13 23 20.8          19.7 VqEJ095I52
         K16J18C  C2016 05 08.19404 14 23 12.43 -13 23 25.9          19.2 VqEJ095I52
         K16J18C  C2016 05 08.22009 14 22 56.13 -13 26 16.5          19.8 RuEJ095926
         K16J18C  C2016 05 08.22822 14 22 51.04 -13 27 09.9          19.7 RuEJ095926
         K16J18C  C2016 05 08.23635 14 22 45.89 -13 28 04.2          19.9 RuEJ095926
         K16J18C _C2016 05 08.35123314 21 35.742-13 40 33.53         19.3 RtEJ095568
         K16J18C _C2016 05 08.35222714 21 35.109-13 40 40.13         19.2 RtEJ095568
         K16J18C _C2016 05 08.35316014 21 34.513-13 40 46.37         19.2 RtEJ095568
         K16J18C KC2016 05 08.43717 14 20 42.45 -13 49 07.6          18.8 RtEJ095474
         K16J18C KC2016 05 08.43836 14 20 41.68 -13 49 15.6          19.0 RtEJ095474
         K16J18C KC2016 05 08.43956 14 20 40.95 -13 49 23.8          19.0 RtEJ095474
         K16J18C KC2016 05 08.44076 14 20 40.18 -13 49 31.6          18.9 RtEJ095474
         K16J18C KC2016 05 08.44196 14 20 39.39 -13 49 39.7          19.4 RtEJ095474
         K16J18C KC2016 05 08.88943 14 15 55.12 -14 41 23.6          19.8 RqEJ095113
         K16J18C KC2016 05 08.90046 14 15 47.71 -14 42 40.6          20.1 RqEJ095113
         K16J18C KC2016 05 08.91146 14 15 40.48 -14 43 55.5          19.6 RqEJ095113
         K16J18C mC2016 05 09.19552 14 12 34.89 -15 16 34.1          19.6 VoEJ095691
         K16J18C mC2016 05 09.20911 14 12 25.58 -15 18 09.8          19.8 VoEJ095691
         K16J18C  C2016 05 09.21500 14 12 21.51 -15 18 51.1          18.9 RoEJ095926
         K16J18C  C2016 05 09.22046 14 12 17.75 -15 19 29.3          18.9 RoEJ095926
         K16J18C mC2016 05 09.22237 14 12 16.42 -15 19 43.5          19.7 VoEJ095691
         K16J18C  C2016 05 09.22594 14 12 14.00 -15 20 07.8          19.0 RoEJ095926
         K16J18C  C2016 05 09.23624 14 12 06.89 -15 21 21.1          19.4 VqEJ095I52
         K16J18C  C2016 05 09.23666 14 12 06.55 -15 21 24.2          19.3 VqEJ095I52
         K16J18C  C2016 05 09.23707 14 12 06.28 -15 21 26.6          19.6 VqEJ095I52
         K16J18C  C2016 05 09.23749 14 12 06.02 -15 21 30.0          19.8 VqEJ095I52
         K16J18C  C2016 05 09.24366 14 12 01.74 -15 22 12.4          19.4 RuEJ095926
         K16J18C  C2016 05 09.24819 14 11 58.62 -15 22 44.5          19.6 RuEJ095926
         K16J18C  C2016 05 09.25273 14 11 55.47 -15 23 16.1          19.6 RuEJ095926
         K16J18C  C2016 05 09.31961 14 11 09.17 -15 31 05.8          20.1 RuEJ095926
         K16J18C  C2016 05 09.32414 14 11 06.02 -15 31 37.2          20.2 RuEJ095926
         K16J18C  C2016 05 09.32868 14 11 02.89 -15 32 09.8          20.2 RuEJ095926
    
    Observer details:
    113 Volkssternwarte Drebach, Schoenbrunn.  Observer A. Knoefel.  0.5-m f/4.6
        reflector + CCD.
    246 Klet Observatory-KLENOT.  Observers M. Tichy, J. Ticha, M. Kocer.
        Measurer M. Tichy.  1.06-m KLENOT Telescope + CCD.
    474 Mount John Observatory, Lake Tekapo.  Observers A. C. Gilmore,
        P. M. Kilmartin.  Measurer P. M. Kilmartin.  1.0-m f/7.7 reflector + CCD.
    568 Mauna Kea.  Observers R. J. Wainscoat, D. Woodworth.  Measurers M. Micheli,
        R. J. Wainscoat.  3.6-m Canada-France-Hawaii Telescope + CCD.
    691 Steward Observatory, Kitt Peak.  Observer A. F. Tubbiolo.  0.9-m f/3
        reflector + CCD.
    926 Tenagra II Observatory.  Observers M. Schwartz, P. R. Holvorcem.  Measurer
        M. Schwartz.  0.41-m f/3.75 astrograph + CCD, 0.81-m f/7 Ritchey-Chretien
        + CCD.
    F51 Pan-STARRS 1, Haleakala.  Observers B. Gibson, T. Goggia, N. Primak,
        A. Schultz, M. Willman.  Measurers K. Chambers, S. Chastel, L. Denneau,
        H. Flewelling, M. Huber, E. Lilly, E. Magnier, R. Wainscoat, C. Waters,
        R. Weryk.  1.8-m Ritchey-Chretien + CCD.
    I52 Steward Observatory, Mt. Lemmon Station.  Observer D. C. Fuls.  Measurers
        E. J. Christensen, D. C. Fuls, A. R. Gibbs, A. D. Grauer, J. A. Johnson,
        R. A. Kowalski, S. M. Larson, G. J. Leonard, R. G. Matheny, R. L. Seaman,
        F. C. Shelly.  1.0-m reflector + CCD.
    
    Orbital elements:
    2016 JC18                                                Earth MOID = 0.0443 AU
    Epoch 2016 July 31.0 TT = JDT 2457600.5                 MPC
    M   3.67324              (2000.0)            P               Q
    n   0.66415659     Peri.  284.33023     +0.78642261     +0.50783488
    a   1.3010352      Node    46.63202     -0.18275592     +0.73507707
    e   0.4495539      Incl.   28.92729     -0.59003369     +0.44918308
    P   1.48           H   22.7           G   0.15           U   8
    Residuals in seconds of arc
    160507 F51  0.0   0.1-    160508 926  0.3+  0.1+    160509 691  0.1+  0.1+
    160507 F51  0.2-  0.2-    160508 926  0.5+  0.3+    160509 926  0.2+  0.1-
    160507 F51  0.4+  0.3+    160508 926  0.0   0.4-    160509 926  0.1+  0.1+
    160507 F51  0.1-  0.1-    160508 568  0.1+  0.1+    160509 691  0.6-  0.4-
    160507 246  1.1-  1.1+    160508 568  0.1+  0.2+    160509 926  0.4+  0.1+
    160507 246  0.0   1.0-    160508 568  0.1+  0.1+    160509 I52  0.4+  0.1-
    160507 246  0.7-  0.4-    160508 474  0.1+  0.1+    160509 I52  0.3-  0.3-
    160507 246  1.1-  1.2+    160508 474  0.0   0.0     160509 I52  0.1-  0.2+
    160508 926  0.2-  0.2+    160508 474  0.5+  0.2-    160509 I52  0.3+  0.2-
    160508 926  0.1-  0.5-    160508 474  0.4+  0.1+    160509 926  0.2-  0.0
    160508 926  0.7+  0.5+    160508 474  0.0   0.0     160509 926  0.1-  0.2-
    160508 I52  0.2-  0.5-    160508 113  0.0   0.6+    160509 926  0.3-  0.1+
    160508 I52  0.1+  0.1+    160508 113  1.3-  0.6-    160509 926  0.3+  0.1+
    160508 I52  0.2+  0.3-    160508 113  0.2-  0.2+    160509 926  0.2+  0.5+
    160508 I52  0.6+  0.4-    160509 691  0.1-  0.2+    160509 926  0.6+  0.2-
    
    Ephemeris:
    2016 JC18                a,e,i = 1.30, 0.45, 29                  q = 0.7161
    Date    TT    R. A. (2000) Decl.     Delta      r     Elong.  Phase     V
    2016 04 09    16 04 40.6 +06 20 57   0.4684  1.3717   134.6    31.3    23.1
    ...
    2016 04 24    15 42 55.9 +01 49 07   0.2928  1.2718   152.1    21.7    21.6
    ...
    2016 05 02    15 10 42.9 -04 26 39   0.2125  1.2154   166.4    11.3    20.5
    ...
    2016 05 08    14 25 08.0 -13 01 40   0.1644  1.1718   170.5     8.2    19.7
    2016 05 09    14 14 43.1 -14 53 10   0.1580  1.1645   167.8    10.6    19.7
    2016 05 10    14 03 17.5 -16 51 46   0.1521  1.1571   164.4    13.5    19.7
    ...
    2016 05 16    12 30 48.1 -29 51 39   0.1322  1.1124   137.7    37.7    20.1
    ...
    2016 05 24    09 53 47.9 -39 17 25   0.1502  1.0520   101.1    70.9    21.2
    ...
    2016 06 08    07 16 59.3 -34 53 15   0.2553  0.9390    65.6   100.0    23.2
    
    A. U. Tomatic                (C) Copyright 2016 MPC           M.P.E.C. 2016-J95
    

    Read MPEC 2016-J94 Read MPEC 2016-J96


    MPEC number:

    Enter an MPEC number in one of the following forms:

    • 1997-B01 (the full form)
    • J97B01 (the packed version of the full form)
    • B01 (the abbreviated form)